Regional Weather Roundup
Issued by NWS Charleston, WV

Home | Current Version | Previous Version | Graphics & Text | Print | Product List | Glossary On
Versions: 1 2 3 4 5 6 7 8 9 10 11 12 13 14 15 16 17 18 19 20 21 22 23 24 25 26 27 28 29 30 31 32 33 34 35 36 37 38 39 40 41 42 43 44 45 46 47 48 49 50
000
ASUS41 KRLX 180910
RWRRLX
West Virginia Regional Weather Roundup
National Weather Service Charleston WV
500 AM EDT THU SEP 18 2014

Note: "fair" indicates few or no clouds below 12,000 feet with no
significant weather and/or obstructions to visibility.

WVZ003-181000-
Northern Panhandle of West Virginia

CITY           SKY/WX    TMP DP  RH WIND       PRES   REMARKS
WHEELING       MOCLDY    52  49  89 CALM      30.02R
$$

WVZ009-181000-
Northwest West Virginia

CITY           SKY/WX    TMP DP  RH WIND       PRES   REMARKS
PARKERSBURG    PTCLDY    52  50  93 CALM      30.03R
$$

WVZ006-181000-
Western West Virginia

CITY           SKY/WX    TMP DP  RH WIND       PRES   REMARKS
HUNTINGTON     PTCLDY    54  52  93 CALM      30.00S
$$

WVZ015-181000-
West Central West Virginia

CITY           SKY/WX    TMP DP  RH WIND       PRES   REMARKS
CHARLESTON     FOG       56  56 100 W3        30.00R VSB 1/4
$$

WVZ031-181000-
North Central West Virginia

CITY           SKY/WX    TMP DP  RH WIND       PRES   REMARKS
CLARKSBURG     FOG       52  51  97 CALM      29.99S VSB 1/4
MORGANTOWN     FOG       53  50  89 CALM      30.01R VSB 1
$$

WVZ035-042-045-181000-
South Central West Virginia

CITY           SKY/WX    TMP DP  RH WIND       PRES   REMARKS
BECKLEY        CLOUDY    56  54  93 CALM      30.02S FOG
BLUEFIELD      CLOUDY    56  54  93 SW5       30.03S FOG
LEWISBURG      MOCLDY    54  52  94 CALM      30.01R
$$

WVZ047-181000-
Northern Mountains of West Virginia

CITY           SKY/WX    TMP DP  RH WIND       PRES   REMARKS
ELKINS         CLOUDY    52  49  89 CALM      30.02S
$$

WVZ052-181000-
Eastern Panhandle of West Virginia

CITY           SKY/WX    TMP DP  RH WIND       PRES   REMARKS
MARTINSBURG    PTCLDY    54  48  80 CALM      29.98R
PETERSBURG     FOG       49  48  93 CALM      30.00S VSB 3/4
$$


USA.gov is the U.S. government's official web portal to all federal, state and local government web resources and services.